SEKEE ESSE-ESSB

Flight info

Callsign SEKEE
Flight time 0h -9m
Altitude 1500
Route DCT
Aircraft BT36/L-BDFGLORY/S

Departure

Time 2026-04-21 19:20
Airport Skå-Edeby Airfield (ESSE)

Arrival

Time 2026-04-21 19:11
Airport Stockholm-Bromma Airport (ESSB)
Time Latitude Longitude Altitude Speed Heading
2026-04-21 19:11 59.34269 17.74686 17 ft 0 kts
2026-04-21 19:18 59.34270 17.74686 17 ft 1 kts
2026-04-21 19:18 59.34300 17.74679 17 ft 0 kts 334°
2026-04-21 19:18 59.34301 17.74679 17 ft 0 kts 339°
2026-04-21 19:19 59.34305 17.74687 17 ft 4 kts 78°
2026-04-21 19:19 59.34291 17.74822 19 ft 12 kts 74°
2026-04-21 19:19 59.34346 17.74723 17 ft 18 kts 286°
2026-04-21 19:19 59.34378 17.74493 13 ft 4 kts 282°
2026-04-21 19:20 59.34378 17.74492 13 ft 0 kts 282°
2026-04-21 19:20 59.34432 17.74031 17 ft 76 kts 283°
2026-04-21 19:20 59.34555 17.72782 287 ft 103 kts 279°
2026-04-21 19:20 59.34652 17.71316 654 ft 114 kts 278°
2026-04-21 19:21 59.34691 17.69753 1015 ft 117 kts 271°
2026-04-21 19:21 59.34654 17.68049 1107 ft 129 kts 269°
2026-04-21 19:21 59.34518 17.66328 1133 ft 130 kts 251°
2026-04-21 19:21 59.33912 17.65045 1173 ft 132 kts 209°
2026-04-21 19:22 59.33026 17.64564 1214 ft 130 kts 191°
2026-04-21 19:22 59.32130 17.64315 1269 ft 130 kts 187°
2026-04-21 19:22 59.31199 17.64150 1341 ft 137 kts 184°
2026-04-21 19:22 59.30235 17.64124 1456 ft 139 kts 172°
2026-04-21 19:23 59.29305 17.64733 1519 ft 144 kts 146°
2026-04-21 19:23 59.28876 17.66398 1521 ft 146 kts 84°
2026-04-21 19:23 59.29150 17.68265 1567 ft 142 kts 66°
2026-04-21 19:23 59.29525 17.70089 1543 ft 144 kts 63°
2026-04-21 19:24 59.29941 17.71868 1526 ft 145 kts 68°
2026-04-21 19:24 59.29994 17.73884 1453 ft 154 kts 100°
2026-04-21 19:24 59.29576 17.75752 1507 ft 149 kts 116°
2026-04-21 19:24 59.29076 17.77534 1463 ft 151 kts 115°
2026-04-21 19:25 59.28780 17.79442 1482 ft 145 kts 91°
2026-04-21 19:25 59.28705 17.81415 1444 ft 146 kts 89°
2026-04-21 19:25 59.28673 17.83422 1390 ft 147 kts 89°
2026-04-21 19:25 59.28637 17.85420 1367 ft 147 kts 88°
2026-04-21 19:26 59.28639 17.87391 1384 ft 143 kts 85°
2026-04-21 19:26 59.28690 17.89308 1437 ft 139 kts 81°
2026-04-21 19:26 59.28781 17.91178 1453 ft 137 kts 79°
2026-04-21 19:26 59.28922 17.93026 1478 ft 137 kts 76°
2026-04-21 19:27 59.29115 17.94856 1453 ft 138 kts 73°
2026-04-21 19:27 59.29102 17.96747 1423 ft 144 kts 103°
2026-04-21 19:27 59.28635 17.98464 1500 ft 139 kts 118°
2026-04-21 19:27 59.28157 18.00103 1542 ft 138 kts 112°
2026-04-21 19:28 59.27865 18.01852 1532 ft 137 kts 95°
2026-04-21 19:28 59.27855 18.03687 1547 ft 134 kts 77°
2026-04-21 19:28 59.28021 18.05480 1550 ft 135 kts 72°
2026-04-21 19:28 59.28267 18.07253 1550 ft 134 kts 68°
2026-04-21 19:29 59.28658 18.08870 1568 ft 129 kts 43°
2026-04-21 19:29 59.29470 18.09296 1581 ft 124 kts 353°
2026-04-21 19:29 59.30310 18.09053 1654 ft 122 kts 342°
2026-04-21 19:29 59.30916 18.07991 1757 ft 123 kts 300°
2026-04-21 19:30 59.31142 18.06212 1537 ft 143 kts 287°
2026-04-21 19:30 59.31386 18.04321 1469 ft 144 kts 290°
2026-04-21 19:30 59.31860 18.02643 1359 ft 142 kts 317°
2026-04-21 19:30 59.32683 18.01636 1289 ft 136 kts 340°
2026-04-21 19:31 59.33582 18.01156 1207 ft 134 kts 348°
2026-04-21 19:31 59.34458 18.00544 1109 ft 133 kts 338°
2026-04-21 19:31 59.35182 17.99573 1161 ft 125 kts 319°
2026-04-21 19:31 59.35778 17.98333 1107 ft 125 kts 312°
2026-04-21 19:32 59.36292 17.96979 1041 ft 122 kts 306°
2026-04-21 19:32 59.36746 17.95549 897 ft 126 kts 303°
2026-04-21 19:32 59.37197 17.94091 756 ft 123 kts 301°
2026-04-21 19:32 59.37586 17.92670 625 ft 113 kts 289°
2026-04-21 19:33 59.37577 17.91742 601 ft 102 kts 241°
2026-04-21 19:33 59.36819 17.90909 418 ft 87 kts 177°
2026-04-21 19:33 59.36372 17.91563 251 ft 83 kts 123°
2026-04-21 19:33 59.36048 17.92452 142 ft 78 kts 123°
2026-04-21 19:34 59.35747 17.93298 33 ft 65 kts 124°
2026-04-21 19:34 59.35513 17.93949 34 ft 77 kts 125°
2026-04-21 19:34 59.35131 17.95027 255 ft 105 kts 125°
2026-04-21 19:34 59.34706 17.96227 636 ft 113 kts 125°
2026-04-21 19:35 59.34197 17.97577 972 ft 133 kts 131°
2026-04-21 19:35 59.32519 17.99359 1503 ft 143 kts 160°
2026-04-21 19:35 59.31563 18.00024 1513 ft 148 kts 158°
2026-04-21 19:36 59.30951 18.00609 1533 ft 148 kts 144°
2026-04-21 19:36 59.30348 18.02124 1573 ft 141 kts 96°
2026-04-21 19:36 59.30602 18.03880 1532 ft 139 kts 45°
2026-04-21 19:36 59.31303 18.05178 1492 ft 139 kts 39°
2026-04-21 19:37 59.32025 18.06457 1469 ft 141 kts 47°
2026-04-21 19:37 59.32244 18.08276 1499 ft 146 kts 101°
2026-04-21 19:37 59.31524 18.09644 1463 ft 155 kts 160°
2026-04-21 19:37 59.30478 18.10160 1435 ft 156 kts 166°
2026-04-21 19:38 59.29396 18.10437 1364 ft 159 kts 188°
2026-04-21 19:38 59.28479 18.09405 1370 ft 150 kts 237°
2026-04-21 19:38 59.28172 18.07562 1445 ft 140 kts 263°
2026-04-21 19:38 59.27944 18.05717 1507 ft 140 kts 250°
2026-04-21 19:39 59.27403 18.04126 1587 ft 140 kts 241°
2026-04-21 19:39 59.26935 18.02486 1653 ft 140 kts 245°
2026-04-21 19:39 59.26482 18.00758 1648 ft 142 kts 255°
2026-04-21 19:39 59.26481 17.98935 1666 ft 134 kts 302°
2026-04-21 19:40 59.27230 17.98061 1696 ft 128 kts 354°
2026-04-21 19:40 59.28134 17.97918 1668 ft 132 kts 355°
2026-04-21 19:40 59.29054 17.97762 1656 ft 133 kts 355°
2026-04-21 19:40 59.29976 17.97581 1657 ft 133 kts 354°
2026-04-21 19:41 59.30879 17.97186 1682 ft 133 kts 335°
2026-04-21 19:41 59.31651 17.96101 1563 ft 140 kts 320°
2026-04-21 19:41 59.32367 17.94852 1405 ft 137 kts 320°
2026-04-21 19:41 59.33088 17.93593 1220 ft 138 kts 317°
2026-04-21 19:42 59.33767 17.92297 1124 ft 132 kts 320°
2026-04-21 19:42 59.34441 17.91045 896 ft 132 kts 316°
2026-04-21 19:42 59.35066 17.89804 671 ft 126 kts 315°
2026-04-21 19:42 59.35719 17.88861 666 ft 109 kts 347°
2026-04-21 19:43 59.36392 17.89224 613 ft 107 kts 47°
2026-04-21 19:43 59.36600 17.90583 362 ft 102 kts 100°
2026-04-21 19:43 59.36307 17.91713 212 ft 88 kts 123°
2026-04-21 19:43 59.35976 17.92653 97 ft 81 kts 123°
2026-04-21 19:44 59.35680 17.93487 59 ft 77 kts 124°
2026-04-21 19:44 59.35359 17.94515 311 ft 100 kts 114°
2026-04-21 19:44 59.35500 17.95743 729 ft 105 kts 30°
2026-04-21 19:44 59.36234 17.95580 891 ft 125 kts 324°
2026-04-21 19:45 59.36824 17.94245 868 ft 129 kts 312°
2026-04-21 19:45 59.37384 17.92866 778 ft 125 kts 302°
2026-04-21 19:45 59.37410 17.91326 717 ft 118 kts 235°
2026-04-21 19:45 59.36687 17.90852 557 ft 112 kts 161°
2026-04-21 19:46 59.36240 17.91953 214 ft 105 kts 126°
2026-04-21 19:46 59.35847 17.93010 50 ft 88 kts 126°
2026-04-21 19:46 59.35551 17.93843 35 ft 62 kts 127°
2026-04-21 19:46 59.35329 17.94461 30 ft 49 kts 125°
2026-04-21 19:47 59.35182 17.94868 34 ft 21 kts 126°
2026-04-21 19:47 59.35193 17.95017 37 ft 9 kts 39°
2026-04-21 19:47 59.35242 17.95088 35 ft 10 kts 34°
2026-04-21 19:47 59.35260 17.95202 34 ft 10 kts 70°
2026-04-21 19:48 59.35322 17.95247 34 ft 11 kts 318°
2026-04-21 19:48 59.35376 17.95148 34 ft 10 kts 301°
2026-04-21 19:48 59.35369 17.95124 34 ft 0 kts 144°